Regional Weather Roundup
Issued by NWS

Home | Current Version | Previous Version | Text Only | Print | Product List | Glossary On
Versions: 1 2 3 4 5 6 7 8 9 10 11 12 13 14 15 16 17 18 19 20 21 22 23 24 25 26 27 28 29 30 31 32 33 34 35 36 37 38 39 40 41 42 43 44 45 46 47 48 49 50
000
ASUS43 KDTX 071810
RWRMI
MICHIGAN HOURLY REGIONAL WEATHER ROUNDUP
NATIONAL WEATHER SERVICE DETROIT/PONTIAC MI
200 PM EDT TUE JUL 07 2015

NOTE: "FAIR" INDICATES FEW OR NO CLOUDS BELOW 12,000 FEET WITH NO
SIGNIFICANT WEATHER AND/OR OBSTRUCTION TO VISIBILITY.

MIZ047>049-052>055-059>063-066>070-074>076-081>083-071900-
SOUTHEAST LOWER MICHIGAN

CITY           SKY/WX    TMP DP  RH WIND       PRES   REMARKS
ADRIAN         CLOUDY    75  72  90 W8        29.88F
6HR MIN TEMP:  72; 6HR MAX TEMP:  76; 6HR PCP: TRACE;

ALMA           CLOUDY    67  57  71 NW13G22   29.93R
ANN ARBOR      RAIN      69  67  93 NW12G25   29.87S FOG
BAD AXE        CLOUDY    62  61  95 N13       29.89R FOG
CARO           CLOUDY    64  63  96 N9        29.88S FOG
DETROIT CITY   LGT RAIN  75  70  84 W13G20    29.84F
6HR MIN TEMP:  75; 6HR MAX TEMP:  79; 6HR PCP:  0.04;

DETROIT        LGT RAIN  75  71  87 SW14      29.86F
6HR MIN TEMP:  75; 6HR MAX TEMP:  79; 6HR PCP:  0.05;

FLINT          CLOUDY    65  61  87 NW8       29.90R FOG
6HR MIN TEMP:  64; 6HR MAX TEMP:  73; 6HR PCP:  1.16;

GROSSE ILE     LGT RAIN  73  72  94 SW7       29.85F
HILLSDALE      LGT RAIN  69  69 100 NW12      29.91R
6HR MIN TEMP:  69; 6HR MAX TEMP:  75;

HOWELL         DRIZZLE   63  62  96 NW7       29.90S
6HR MIN TEMP:  63; 6HR MAX TEMP:  73;


CITY           SKY/WX    TMP DP  RH WIND       PRES   REMARKS
JACKSON        CLOUDY    63  60  90 NW12      29.91R
6HR MIN TEMP:  63; 6HR MAX TEMP:  73; 6HR PCP:  0.23;

LAMBERTVILLE   LGT RAIN  75  71  87 SW6       29.88S
6HR MIN TEMP:  73; 6HR MAX TEMP:  79;

LANSING        CLOUDY    65  60  84 N9        29.92S
6HR MIN TEMP:  60; 6HR MAX TEMP:  71; 6HR PCP:  0.67;

LAPEER         DRIZZLE   63  62  94 N5        29.88S
MASON          DRIZZLE   60  59  95 NW8       29.91S
MONROE         LGT RAIN  75  72  91 SW9       29.85F
6HR MIN TEMP:  73; 6HR MAX TEMP:  79; 6HR PCP:  0.03;

MT. CLEMENS    LGT RAIN  74  71  91 W10G20    29.82S FOG
6HR MIN TEMP:  74; 6HR MAX TEMP:  78; 6HR PCP:  0.17;

PONTIAC        LGT RAIN  66  64  93 NW14      29.87R
6HR MIN TEMP:  66; 6HR MAX TEMP:  74; 6HR PCP:  0.47;

PORT HOPE        N/A     62  61  96 NW8G18    29.87R
6HR MIN TEMP:  61; 6HR MAX TEMP:  74; 6HR PCP:  0.43;

PORT HURON     LGT RAIN  73  72  94 SW6G18    29.83S
TRI CITIES     CLOUDY    68  59  73 NW10      29.91R
6HR MIN TEMP:  62; 6HR MAX TEMP:  74; 6HR PCP:  0.27;

MIDLAND        CLOUDY    69  57  65 NW13      29.90S
TROY           LGT RAIN  74  72  93 SW9       29.86S
SAGINAW HB     CLOUDY   N/A N/A N/A NW8       29.89S
$$
MIZ043>046-050>051-056>058-064>065-071>073-077>080-071900-
SOUTHWEST LOWER MICHIGAN

CITY           SKY/WX    TMP DP  RH WIND       PRES   REMARKS
BATTLE CREEK   PTSUNNY   69  60  73 NW12      29.93S
6HR MIN TEMP:  63; 6HR MAX TEMP:  73; 6HR PCP:  0.41;

BENTON HARBOR  SUNNY     63  54  72 N13G25    29.98R
6HR MIN TEMP:  59; 6HR MAX TEMP:  64; 6HR PCP:  0.25;

BIG RAPIDS     CLOUDY    64  50  61 N12G21    29.95S
6HR MIN TEMP:  56; 6HR MAX TEMP:  64;

COLDWATER      CLOUDY    64  63  95 NW8       29.92S
6HR MIN TEMP:  64; 6HR MAX TEMP:  72;

FREMONT        CLOUDY    67  48  51 N15G23    29.96S
HOLLAND        SUNNY     68  53  58 NW16G22   29.96S
6HR MIN TEMP:  60; 6HR MAX TEMP:  69; 6HR PCP:  0.03;

GRAND RAPIDS   PTSUNNY   70  56  61 NW14      29.93S
6HR MIN TEMP:  60; 6HR MAX TEMP:  71; 6HR PCP:  0.05;

IONIA          CLOUDY    69  57  64 N9G18     29.92R
KALAMAZOO      MOSUNNY   70  59  68 N15       29.93S
6HR MIN TEMP:  62; 6HR MAX TEMP:  72; 6HR PCP:  0.34;

LUDINGTON      MOSUNNY   64  48  57 N20G31    30.02R
6HR MIN TEMP:  56; 6HR MAX TEMP:  64;

MARSHALL       CLOUDY    65  61  87 NW5       29.92R
MOUNT PLEASANT CLOUDY    63  53  70 N13G22    29.94R
6HR MIN TEMP:  58; 6HR MAX TEMP:  65; 6HR PCP:  0.07;

MUSKEGON       MOSUNNY   70  49  47 N14G24    29.97R
6HR MIN TEMP:  59; 6HR MAX TEMP:  70; 6HR PCP: TRACE;

SOUTH HAVEN    SUNNY     64  54  70 NW15G23   29.98R
$$
MIZ016>042-071900-
NORTHERN LOWER MICHIGAN

CITY           SKY/WX    TMP DP  RH WIND       PRES   REMARKS
ALPENA         CLOUDY    62  54  74 NW13G20   29.91S
6HR MIN TEMP:  59; 6HR MAX TEMP:  62; 6HR PCP:  0.21;

BEAVER ISLAND  CLOUDY    62  47  58 NW12G20   30.00R
6HR MIN TEMP:  54; 6HR MAX TEMP:  63;

BELLAIRE       CLOUDY    62  48  59 N9G17     29.98R
6HR MIN TEMP:  55; 6HR MAX TEMP:  64;

CADILLAC       CLOUDY    61  49  64 N9G20     29.97R
CHARLEVOIX     PTSUNNY   63  49  59 N13G21    30.02R
6HR MIN TEMP:  55; 6HR MAX TEMP:  63;

FRANKFORT      SUNNY     65  46  49 N12G20    30.02S
GAYLORD        CLOUDY    59  51  75 NW8G17    29.96R
6HR MIN TEMP:  54; 6HR MAX TEMP:  59; 6HR PCP:  0.01;

GRAYLING       CLOUDY    62  50  64 NW17      29.96R
6HR MIN TEMP:  55; 6HR MAX TEMP:  63;

HARBOR SPRINGS PTSUNNY   62  47  57 N12G20    29.96S
HOUGHTON LAKE  CLOUDY    62  52  69 NW10G24   29.95R
6HR MIN TEMP:  56; 6HR MAX TEMP:  62; 6HR PCP:  0.02;

MANISTEE       MOSUNNY   61  46  59 N17G28    30.02S
OSCODA         CLOUDY    64  58  82 N13G20    29.88S
PELLSTON       CLOUDY    66  47  50 N16       29.96S
6HR MIN TEMP:  55; 6HR MAX TEMP:  66; 6HR PCP: TRACE;

ROGERS CITY    CLOUDY    63  55  75 NW16G23   29.93R
TRAVERSE CITY  PTSUNNY   65  48  54 NW15G22   29.98R
6HR MIN TEMP:  55; 6HR MAX TEMP:  66;

$$
MIZ007>008-015-071900-
EASTERN UPPER MICHIGAN

CITY           SKY/WX    TMP DP  RH WIND       PRES   REMARKS
KINROSS        MOSUNNY   61  48  63 NW17G26   29.95R
6HR MIN TEMP:  52; 6HR MAX TEMP:  61;

MACKINAC ISLAN MOSUNNY   64  49  57 N14G21    29.95S
6HR MIN TEMP:  54; 6HR MAX TEMP:  64;

NEWBERRY       CLOUDY    58  48  69 NW12G22   29.99S
S. S. MARIE    MOSUNNY   59  48  67 NW12G26   29.95R
6HR MIN TEMP:  55; 6HR MAX TEMP:  61;

MUNISING         N/A     54  46  74 NW15      30.06R
6HR MIN TEMP:  50; 6HR MAX TEMP:  55;

$$
MIZ004>006-011>014-085-071900-
CENTRAL UPPER MICHIGAN

CITY           SKY/WX    TMP DP  RH WIND       PRES   REMARKS
MANISTIQUE     MOSUNNY   63  46  54 N15G28    30.00S
ESCANABA       PTSUNNY   63  45  51 N14G22    30.03S
6HR MIN TEMP:  54; 6HR MAX TEMP:  63;

MENOMINEE      CLOUDY    63  46  55 N8        30.04R
6HR MIN TEMP:  54; 6HR MAX TEMP:  64;

SAWYER-GWINN   MOSUNNY   61  46  59 N17G23    30.06S
$$
MIZ001>003-009>011-084-071900-
WESTERN UPPER MICHIGAN

CITY           SKY/WX    TMP DP  RH WIND       PRES   REMARKS
IRON MOUNTAIN  CLOUDY    63  45  51 N21G28    30.06R
6HR MIN TEMP:  53; 6HR MAX TEMP:  64;

HOUGHTON       SUNNY     62  43  49 NW14      30.09S
6HR MIN TEMP:  51; 6HR MAX TEMP:  62;

COPPER HARBOR    N/A     59  47  64 N15       30.06F
6HR MIN TEMP:  47; 6HR MAX TEMP:  59;

IRONWOOD       SUNNY     61  43  51 N10       30.11S
6HR MIN TEMP:  54; 6HR MAX TEMP:  61;

$$

ABBREVIATIONS USED IN REMARKS
   TC - TEMPERATURE IN CELSIUS
  WCI - WIND CHILL INDEX
   HX - HEAT INDEX
  VSB - VISIBILITY



USA.gov is the U.S. government's official web portal to all federal, state and local government web resources and services.